Temperature
21 21 20 20 18 17 18 19 19 19 19 19 19 18 18 17 18 17 17 17 18 18 18 17 17 18 18 18 18 18 17 17 17 17 17 17 18 18 17 18 18 17 17 17 17 17 18 17 17
21 21 21 20 17 17 18 19 19 19 19 19 19 18 18 17 18 18 18 18 18 18 18 18 17 18 18 18 17 17 17 17 17 17 17 17 17 17 17 17 17 17 17 17 17 17 17 17 17
21 21 21 17 17 18 19 19 19 19 19 19 19 18 18 18 18 18 18 18 18 18 18 18 18 18 18 17 17 17 17 17 17 17 17 17 17 17 17 17 17 17 17 17 17 17 17 17 17
21 21 20 17 18 19 19 19 19 19 20 19 19 18 18 18 18 18 18 18 18 18 18 18 18 18 17 17 17 17 17 17 17 17 17 17 17 17 17 17 17 17 17 17 17 17 17 17 17
22 21 17 18 19 19 19 19 19 19 19 19 18 18 18 18 18 18 18 18 18 18 18 17 17 17 17 17 17 17 17 17 17 17 17 17 17 17 17 17 17 17 17 17 17 17 17 17 17
22 18 17 18 19 19 19 20 19 19 18 19 18 17 17 18 18 18 18 18 18 18 18 17 17 17 17 17 17 17 17 17 17 17 17 17 17 17 17 17 17 17 17 17 17 17 17 17 16
20 17 18 18 18 19 20 20 19 18 18 18 19 17 18 18 18 18 18 18 17 17 18 17 17 17 17 17 17 17 17 17 17 17 17 17 17 17 17 16 17 16 16 16 16 16 16 16 16
21 17 18 18 19 19 20 20 20 19 19 19 19 18 18 18 18 18 18 18 18 17 17 17 17 17 17 17 17 17 17 17 17 17 17 17 16 16 16 16 16 16 16 16 16 16 16 16 16
21 17 18 19 19 19 20 20 20 19 19 19 19 19 19 18 18 18 18 18 18 18 17 17 17 17 17 17 17 17 17 17 17 17 17 16 16 16 16 16 16 16 16 16 16 16 16 16 16
21 17 19 20 19 19 20 20 20 19 19 18 18 19 19 18 18 18 18 18 18 18 18 17 17 17 17 17 17 17 17 17 17 16 16 16 16 16 16 16 16 16 16 16 16 16 16 16 16
20 19 20 20 21 21 20 20 20 19 18 19 19 19 18 18 18 18 18 18 18 18 18 17 17 17 17 17 17 17 17 17 16 16 16 16 16 16 16 16 16 16 16 16 16 16 16 16 16
20 20 20 21 21 21 20 20 19 19 20 20 20 19 19 18 18 18 18 18 18 18 18 18 17 17 17 17 17 17 17 17 16 16 16 16 16 16 16 16 16 16 16 16 16 15 15 15 15
20 20 21 21 21 21 20 20 19 19 20 20 20 19 19 18 18 18 18 18 18 18 18 18 17 17 17 17 17 17 17 17 16 16 16 16 16 16 16 16 16 16 15 15 15 15 15 15 15
20 20 20 21 21 21 19 19 19 19 19 19 19 19 18 18 18 18 18 18 18 18 18 18 18 17 17 17 17 17 17 16 16 16 16 16 16 16 16 16 16 15 15 15 15 15 15 15 15
21 20 20 20 20 20 20 19 18 19 19 18 18 18 18 18 18 18 18 18 18 18 18 18 18 17 17 17 17 17 17 16 16 16 16 16 16 16 16 16 16 15 15 15 15 15 15 15 15
20 19 19 20 20 20 19 18 18 19 18 18 18 18 18 18 18 18 18 18 18 18 18 18 18 17 17 17 17 17 17 17 16 16 16 16 16 16 16 16 15 15 15 15 15 15 15 15 15
18 18 19 19 19 19 18 18 18 18 18 17 17 18 18 18 18 18 18 18 18 18 18 18 18 17 17 17 17 17 17 16 16 16 16 16 16 16 16 15 15 15 15 15 15 15 15 15 15
19 19 19 19 19 18 17 17 17 17 17 17 17 17 17 18 18 18 18 18 18 18 18 18 17 17 17 17 17 17 16 16 16 16 16 16 16 16 15 15 15 15 15 15 15 15 15 15 14
19 19 19 19 19 18 17 17 17 16 16 16 16 17 17 17 18 18 18 18 18 18 17 17 17 17 17 17 17 17 16 16 16 16 16 16 15 15 15 15 15 15 15 15 15 15 15 14 14
19 19 19 19 19 18 17 17 17 16 16 16 17 17 17 17 18 18 18 18 18 17 17 17 17 17 17 17 17 16 16 16 16 16 16 15 15 15 15 15 15 15 15 15 15 15 14 14 14
19 19 19 19 19 18 18 17 17 17 17 17 17 17 17 17 18 18 18 18 18 17 17 17 17 17 17 16 16 16 16 16 16 16 15 15 15 15 15 15 15 15 15 15 15 14 14 14 14
19 20 19 19 18 17 18 16 16 16 16 16 16 17 17 18 17 17 17 17 17 17 17 17 17 17 16 16 16 16 16 16 16 15 15 15 15 15 15 15 15 15 15 14 14 14 14 14 14
20 19 19 19 18 16 16 16 15 15 16 16 16 17 17 18 18 18 18 17 17 17 17 17 17 16 16 16 16 16 16 16 15 15 15 15 15 15 15 15 15 15 14 14 14 14 14 14 14
19 18 17 15 15 16 16 16 15 15 16 16 16 17 17 18 17 18 18 17 17 17 17 17 17 16 16 16 16 15 15 15 15 15 15 15 15 15 15 14 14 14 14 14 14 14 14 14 14
18 17 16 16 15 15 16 16 15 16 16 16 16 17 18 18 17 17 17 17 17 17 17 17 17 16 16 16 16 15 15 15 15 15 15 15 15 15 14 14 14 14 14 14 14 14 14 13 13
18 17 16 16 16 15 16 15 16 16 17 17 17 17 18 17 17 17 17 17 17 17 17 16 16 16 16 16 15 15 15 15 15 14 14 14 15 14 14 14 14 14 14 14 14 14 13 13 13
17 16 16 15 15 15 15 15 16 17 16 16 17 17 17 17 17 17 17 17 17 17 17 16 16 16 16 16 15 15 15 15 14 14 14 14 14 14 14 14 14 14 14 14 14 14 13 13 13
17 15 14 14 15 15 15 15 15 16 16 16 16 16 17 17 17 17 17 17 17 17 16 16 16 16 15 15 15 15 14 14 14 14 14 14 14 14 14 14 14 14 13 13 13 13 13 13 13
17 16 14 13 14 14 15 15 16 16 16 15 15 17 17 17 17 17 17 17 17 16 16 16 16 15 15 15 15 15 14 14 14 14 14 14 14 14 14 13 13 13 13 13 13 13 13 13 13
17 16 14 15 14 13 13 14 16 15 15 16 16 17 17 17 17 17 17 17 16 16 16 16 15 15 15 15 14 14 14 14 14 14 14 13 13 13 13 13 13 13 13 13 13 13 13 13 13
Wind_Speed
2 5 3 4 5 6 3 3 1 2 3 3 4 6 6 4 2 2 2 1 1 1 3 4 5 7 8 8 8 8 9 9 9 10 10 11 11 11 11 11 10 10 10 10 10 10 10 10 10
3 3 4 5 5 4 2 2 2 1 3 3 4 5 5 4 2 2 1 1 1 2 3 3 5 6 7 7 8 8 9 9 10 10 10 10 10 10 11 11 11 11 10 10 10 10 11 10 10
3 3 4 5 4 3 2 0 2 3 4 2 4 4 4 2 1 1 1 1 2 3 3 3 6 7 7 7 8 8 8 9 9 10 10 10 10 10 11 11 11 11 11 11 11 11 11 11 11
3 5 5 6 5 0 2 1 2 4 4 5 4 4 3 2 2 2 2 3 3 2 3 3 5 6 7 7 7 7 8 8 9 9 9 9 9 10 10 11 11 11 12 11 11 11 12 12 11
4 5 6 5 3 2 1 1 2 3 3 4 4 4 3 4 3 4 4 3 3 2 3 4 5 6 6 6 6 6 7 7 8 8 9 9 9 9 10 11 11 11 11 11 11 11 11 11 11
5 5 5 3 2 2 2 2 3 4 4 3 4 3 1 2 3 3 4 3 2 2 3 4 5 5 6 6 6 6 6 6 7 7 8 8 8 9 10 10 11 11 11 11 11 11 11 12 12
5 5 4 3 2 2 1 2 4 4 3 2 3 4 1 1 1 3 3 3 3 3 3 5 6 5 5 6 6 6 6 6 6 6 7 7 8 8 9 10 10 11 11 11 11 11 12 12 13
5 5 4 2 2 0 1 2 3 4 2 2 3 5 3 2 2 4 4 3 3 3 3 3 5 6 6 6 6 6 6 6 6 6 6 6 7 7 8 9 9 9 10 11 11 12 13 13 13
4 5 3 3 4 2 2 3 2 3 4 2 1 3 2 5 6 5 4 2 2 1 1 1 2 4 4 4 5 6 6 6 6 7 7 7 6 6 7 8 10 10 10 11 12 12 13 13 13
5 4 2 3 4 4 3 3 4 4 3 2 2 3 5 6 6 5 4 3 1 1 1 0 1 1 3 3 5 5 5 6 6 6 6 6 6 6 7 8 9 10 11 12 12 12 12 11 11
4 4 1 1 3 5 4 3 3 6 2 3 4 5 5 5 4 4 3 3 3 2 1 1 0 1 1 2 3 4 4 4 5 5 5 5 5 6 7 7 8 9 10 10 10 11 10 10 9
4 1 2 2 3 4 4 4 3 2 3 3 5 7 5 5 4 4 3 3 2 2 2 1 1 1 1 2 2 2 2 3 3 3 4 3 3 4 4 5 6 6 7 7 8 8 9 9 9
3 1 2 3 5 5 6 4 3 1 1 5 7 7 5 4 2 2 2 1 1 2 2 2 2 2 1 1 1 1 1 2 2 3 3 3 2 2 3 3 4 5 6 6 6 6 7 6 7
1 3 3 3 4 3 6 3 3 1 4 7 6 5 3 2 2 1 0 1 2 2 2 2 2 2 2 1 1 1 1 2 2 2 2 2 3 2 2 3 3 4 4 5 6 5 5 5 5
3 5 5 2 2 2 5 3 1 1 6 6 4 3 2 1 1 0 1 1 2 2 2 2 2 2 2 2 1 1 1 2 2 1 2 2 3 3 3 2 2 3 4 6 6 6 5 4 5
4 5 2 3 1 2 5 2 4 2 6 5 3 1 0 1 1 2 1 1 1 1 0 1 2 2 2 2 1 2 2 2 2 2 2 2 3 4 4 2 2 3 4 4 3 3 4 4 4
4 2 1 3 0 3 4 3 3 3 5 4 2 2 1 2 3 3 2 1 1 1 1 1 2 2 2 2 2 3 3 3 3 3 3 2 3 4 4 2 2 3 4 3 3 3 3 3 3
2 2 1 2 1 4 4 3 3 2 5 4 3 2 1 1 3 3 2 1 1 2 1 1 2 2 2 2 2 2 3 2 3 3 3 2 3 3 4 3 3 4 3 2 3 3 2 2 2
4 3 2 3 2 4 3 3 4 2 3 4 4 3 3 4 3 2 1 1 3 3 3 2 2 2 2 2 1 1 1 1 1 2 2 3 3 4 4 3 3 3 3 3 3 2 3 2 2
3 2 2 2 1 4 2 3 4 2 4 5 6 6 6 4 2 1 1 2 2 1 1 2 1 1 1 1 1 1 1 0 1 2 3 3 3 3 3 3 2 2 3 3 3 2 2 1 1
2 4 4 3 1 2 1 4 4 2 1 2 3 4 4 5 4 3 1 1 1 0 1 1 1 1 1 2 2 3 3 2 2 2 2 2 2 2 3 3 3 2 2 3 2 2 3 2 0
3 4 5 3 3 1 1 3 6 3 3 3 4 4 5 5 4 4 3 2 2 3 1 1 1 1 1 2 3 3 2 1 1 1 1 1 2 2 2 2 3 2 2 2 2 2 2 3 1
4 0 2 2 4 1 2 1 7 2 4 5 5 6 6 5 5 5 5 4 3 2 1 1 1 1 1 1 2 3 1 1 0 0 1 1 2 2 1 2 2 2 2 2 2 2 2 2 2
3 5 6 6 4 0 3 3 6 4 5 5 4 4 5 5 5 4 3 2 2 1 1 1 2 1 1 1 1 2 2 1 1 0 0 1 1 1 1 1 2 1 1 2 2 2 2 2 2
5 5 4 4 3 4 2 3 7 6 5 5 5 4 3 3 4 3 2 2 2 2 2 2 2 1 1 1 1 2 2 3 2 2 1 1 0 1 2 0 1 1 1 2 2 2 2 2 2
3 7 6 4 4 4 2 4 6 5 4 3 3 2 2 3 3 3 3 3 3 3 2 2 2 2 1 1 1 0 1 2 2 2 2 2 2 2 1 1 1 1 1 2 2 2 1 2 2
5 3 5 6 2 2 5 6 7 2 2 1 0 1 2 3 3 3 3 2 2 3 3 3 3 2 2 1 1 0 0 1 2 2 2 2 2 2 1 1 1 0 1 2 3 2 1 2 2
5 8 5 5 3 3 5 5 5 5 4 3 2 3 3 3 3 3 3 3 2 2 2 2 3 3 2 2 1 1 1 1 2 2 2 2 2 1 1 0 1 0 1 1 2 1 1 2 1
3 4 4 4 5 5 3 6 5 7 6 5 5 5 5 5 4 3 3 2 2 1 2 2 2 2 2 2 2 1 1 1 2 2 2 2 2 2 2 2 1 1 1 1 2 2 2 2 1
4 5 6 4 3 4 4 7 5 5 5 5 5 4 4 4 3 3 2 2 1 1 1 2 2 2 3 3 2 2 1 1 1 2 2 2 2 2 2 2 2 1 1 2 2 2 2 2 2
Wind_Direction
107 102 85 62 56 54 50 3 5 48 54 39 61 78 89 79 83 117 293 12 53 21 12 43 62 74 83 88 88 88 90 89 91 88 84 81 78 75 74 73 73 72 72 70 66 61 60 60 61
117 105 61 60 76 69 17 346 44 55 138 133 70 69 69 63 68 101 336 324 68 55 39 49 69 77 83 88 91 90 90 88 89 86 82 79 77 74 73 71 69 69 68 66 63 59 58 58 60
110 67 79 68 79 118 134 81 113 77 98 88 68 55 72 76 89 156 236 155 71 49 36 54 77 79 82 85 90 90 87 87 87 85 82 77 74 71 70 68 66 65 64 62 60 59 57 58 59
88 47 56 69 74 86 161 150 135 106 64 50 84 64 53 31 152 168 130 108 88 55 41 63 83 82 82 87 90 90 87 86 87 85 81 77 74 69 67 68 67 65 63 62 60 59 58 57 59
63 72 62 57 41 7 8 93 94 92 69 54 74 83 39 0 80 112 113 109 102 62 35 51 81 80 78 80 86 87 86 85 85 85 82 77 72 69 68 68 66 65 63 62 59 59 59 59 61
57 66 79 75 31 9 28 74 91 77 79 80 86 90 43 8 92 118 115 117 97 71 38 39 61 72 73 72 71 74 78 77 76 76 75 74 71 70 69 66 64 64 62 60 60 61 61 63 66
96 86 102 113 80 27 83 98 105 105 98 124 121 101 69 350 131 121 110 96 80 63 45 30 32 45 54 60 64 61 63 63 63 66 67 67 68 66 66 64 61 62 62 61 61 64 66 67 68
113 97 86 100 120 144 96 97 104 113 116 113 111 131 189 210 133 103 91 74 66 52 38 25 25 31 30 30 47 52 57 60 58 60 61 62 57 51 53 54 56 59 63 65 67 68 69 68 69
82 78 116 181 164 184 141 105 84 86 94 76 83 162 179 127 112 99 84 56 44 60 18 13 20 18 21 27 42 46 49 53 50 45 51 52 44 40 41 51 55 60 67 71 71 71 71 67 65
78 105 186 193 170 157 134 119 128 92 82 65 58 62 91 106 118 125 132 147 179 237 286 15 43 21 24 39 46 41 43 46 44 40 45 49 48 43 46 51 53 60 67 71 71 71 69 65 60
99 139 159 111 142 131 121 109 111 120 144 200 176 157 125 116 123 139 157 181 207 224 244 228 185 51 46 35 40 42 44 41 39 38 40 48 48 44 43 44 43 51 61 64 63 63 63 64 63
97 113 134 134 120 112 125 119 103 138 218 203 161 147 135 136 153 171 183 207 212 200 232 225 167 115 86 62 43 45 45 40 30 26 33 52 50 43 43 48 47 55 65 69 66 68 65 63 62
87 85 76 103 98 105 100 90 121 41 40 96 107 113 125 136 160 195 198 209 200 210 231 226 171 153 129 98 44 58 53 53 46 38 38 59 69 60 49 58 64 64 72 78 76 74 70 63 57
124 95 73 73 87 91 101 61 70 343 98 97 106 121 135 152 162 115 89 257 238 229 227 211 167 159 136 133 110 77 73 74 67 52 42 73 94 94 80 67 66 65 74 83 88 83 77 67 64
89 82 47 41 92 116 105 34 321 201 115 110 120 128 110 60 52 2 244 229 238 238 217 184 174 145 143 143 118 76 57 82 77 69 59 86 107 113 106 90 75 73 88 91 88 79 75 71 65
62 67 45 306 97 125 117 267 298 138 130 136 151 157 87 348 349 315 304 285 270 253 208 183 166 145 148 135 98 73 56 67 60 56 60 79 111 125 112 100 91 94 100 99 93 81 76 67 64
41 93 233 303 63 122 132 232 298 128 140 156 174 192 230 327 333 318 311 292 256 210 192 153 136 141 141 128 95 74 63 58 51 51 53 69 98 118 115 105 102 106 101 91 102 80 88 88 73
197 176 216 256 255 124 146 241 298 149 157 182 194 202 217 259 274 294 302 318 32 47 58 114 120 111 109 97 81 61 52 44 45 47 47 69 90 108 112 102 102 108 101 87 90 93 74 86 84
157 158 213 257 201 139 180 240 278 205 182 204 214 218 224 240 269 303 325 45 55 46 50 61 89 87 98 88 100 94 58 20 12 30 38 60 89 101 103 94 98 106 115 120 112 102 86 65 74
139 150 249 299 104 158 190 273 283 221 209 213 210 213 222 238 284 300 356 54 73 65 54 60 78 116 131 131 129 122 121 92 31 21 30 42 72 96 108 106 110 115 113 109 107 109 108 87 83
189 185 205 217 47 71 93 325 305 292 236 223 218 212 214 215 221 234 217 205 106 128 179 179 199 201 158 118 90 73 52 39 27 11 357 7 53 86 103 122 119 123 131 149 150 137 135 154 104
238 230 193 176 133 285 112 270 283 277 295 255 237 225 226 221 214 210 204 201 211 223 212 200 167 165 129 128 133 143 144 162 222 245 278 346 34 62 105 122 128 130 138 155 173 155 146 143 152
218 123 125 140 146 66 18 190 286 306 276 270 254 236 231 218 208 206 205 206 214 211 191 193 125 110 90 123 160 164 166 176 186 22 34 10 12 19 67 118 121 132 154 168 163 152 155 156 155
128 71 59 52 78 302 248 188 280 254 236 260 262 243 230 213 206 212 209 188 197 187 170 150 125 115 101 108 146 166 173 168 121 45 18 346 349 347 360 98 117 131 153 167 172 166 168 172 160
82 86 32 358 7 256 260 198 252 258 242 232 244 250 229 190 185 190 186 187 195 190 181 158 138 132 121 128 157 185 179 174 188 206 213 217 294 299 285 263 169 170 175 159 143 146 166 175 172
151 138 157 205 231 277 303 236 255 269 272 250 227 220 185 175 182 191 200 193 195 197 185 167 160 175 163 148 216 213 181 183 205 209 208 217 225 237 251 215 200 200 169 155 135 144 177 170 186
131 149 162 141 168 262 281 286 303 306 335 336 134 143 186 193 196 202 205 197 196 197 197 188 181 191 195 179 175 161 218 199 212 226 227 229 239 234 219 178 187 188 165 158 150 147 175 164 184
134 143 104 122 161 256 289 279 254 265 266 277 264 232 228 208 206 212 213 212 206 196 193 180 178 191 203 187 190 200 233 236 218 205 223 238 242 233 200 185 186 188 173 153 150 155 150 142 187
110 108 115 129 154 165 258 274 230 228 231 235 245 236 221 216 214 217 223 219 200 157 146 164 184 182 193 206 206 196 223 242 211 208 232 239 243 224 207 204 188 178 178 162 161 177 165 158 162
167 165 148 158 215 177 188 265 270 240 241 228 241 244 222 215 213 215 213 191 167 172 181 183 195 207 220 210 199 215 228 230 221 230 242 239 242 236 214 190 180 186 179 164 173 192 186 185 196
Height
1510 1509 1510 1512 1515 1526 1531 1528 1525 1524 1524 1525 1524 1524 1526 1529 1531 1536 1532 1529 1528 1527 1526 1525 1525 1524 1524 1524 1524 1524 1524 1523 1523 1523 1523 1523 1523 1522 1522 1522 1521 1521 1521 1521 1520 1520 1520 1519 1519
1510 1510 1512 1513 1524 1537 1535 1527 1526 1525 1525 1525 1525 1526 1527 1529 1530 1531 1530 1530 1529 1528 1528 1527 1527 1526 1526 1526 1526 1526 1526 1526 1526 1525 1525 1525 1525 1524 1524 1523 1523 1523 1522 1522 1522 1521 1521 1520 1519
1511 1511 1513 1517 1529 1536 1533 1527 1526 1525 1526 1526 1527 1528 1529 1531 1531 1531 1532 1531 1531 1530 1529 1529 1528 1528 1528 1528 1528 1528 1528 1528 1528 1527 1527 1527 1527 1526 1526 1525 1525 1525 1524 1524 1523 1523 1522 1521 1520
1512 1513 1515 1524 1531 1529 1527 1526 1525 1526 1527 1527 1528 1530 1532 1533 1533 1533 1533 1533 1532 1532 1531 1531 1530 1530 1530 1530 1530 1530 1530 1530 1530 1530 1530 1529 1529 1528 1528 1528 1527 1527 1526 1526 1525 1524 1524 1523 1521
1513 1514 1523 1532 1531 1528 1526 1525 1526 1526 1528 1529 1529 1531 1533 1534 1534 1534 1534 1534 1534 1534 1533 1533 1532 1532 1532 1532 1532 1532 1532 1532 1532 1532 1532 1531 1531 1530 1530 1529 1529 1529 1528 1527 1527 1526 1525 1524 1522
1514 1517 1532 1538 1533 1528 1526 1526 1527 1528 1529 1530 1531 1532 1534 1535 1535 1535 1536 1536 1536 1535 1535 1535 1535 1534 1534 1534 1534 1534 1534 1534 1534 1534 1534 1533 1533 1532 1532 1531 1531 1530 1530 1529 1528 1528 1527 1526 1525
1516 1523 1532 1534 1534 1531 1528 1528 1528 1529 1530 1532 1532 1534 1535 1536 1536 1536 1537 1537 1537 1537 1537 1537 1536 1536 1536 1536 1536 1536 1536 1536 1536 1535 1535 1535 1535 1534 1534 1533 1533 1532 1531 1531 1530 1530 1529 1528 1527
1516 1523 1532 1534 1534 1532 1529 1529 1530 1530 1532 1533 1533 1534 1535 1536 1537 1537 1538 1538 1539 1539 1539 1538 1538 1538 1538 1538 1538 1537 1537 1537 1537 1537 1537 1537 1536 1536 1536 1535 1534 1534 1533 1533 1532 1531 1531 1530 1529
1517 1528 1535 1533 1532 1530 1528 1529 1531 1532 1532 1533 1534 1535 1535 1536 1537 1538 1538 1539 1539 1540 1540 1540 1540 1539 1539 1539 1539 1539 1539 1538 1539 1539 1538 1538 1538 1537 1537 1537 1536 1536 1535 1534 1534 1533 1532 1532 1531
1519 1531 1530 1526 1527 1527 1528 1529 1531 1533 1533 1534 1534 1535 1536 1537 1537 1538 1539 1539 1540 1540 1541 1541 1541 1541 1540 1540 1540 1540 1540 1540 1540 1540 1540 1539 1539 1539 1538 1538 1537 1537 1536 1536 1535 1535 1534 1533 1532
1520 1527 1525 1525 1526 1527 1529 1530 1531 1533 1535 1534 1534 1535 1536 1537 1538 1539 1540 1540 1541 1542 1542 1542 1542 1542 1542 1541 1541 1541 1541 1541 1541 1541 1541 1540 1540 1540 1539 1539 1538 1538 1538 1537 1536 1536 1535 1535 1534
1523 1524 1525 1526 1526 1528 1529 1531 1533 1533 1534 1534 1535 1536 1537 1538 1539 1540 1541 1541 1542 1542 1542 1542 1542 1542 1542 1542 1542 1542 1542 1542 1542 1541 1541 1541 1541 1541 1540 1540 1539 1539 1539 1538 1538 1537 1537 1536 1536
1524 1525 1526 1526 1527 1529 1530 1532 1533 1534 1534 1535 1536 1537 1538 1539 1540 1541 1541 1542 1542 1542 1543 1543 1543 1543 1543 1543 1543 1543 1543 1542 1542 1542 1542 1542 1542 1542 1541 1541 1540 1540 1540 1539 1539 1538 1538 1537 1537
1525 1526 1527 1528 1529 1530 1532 1534 1534 1535 1535 1536 1537 1538 1539 1540 1540 1541 1541 1541 1542 1542 1543 1543 1543 1543 1544 1544 1543 1543 1543 1543 1543 1543 1543 1542 1542 1542 1542 1541 1541 1541 1541 1541 1540 1540 1539 1539 1539
1526 1528 1530 1530 1530 1531 1533 1537 1536 1536 1536 1536 1538 1539 1540 1540 1541 1541 1541 1542 1542 1542 1543 1543 1543 1544 1544 1544 1544 1544 1544 1544 1543 1543 1543 1543 1543 1542 1542 1542 1542 1542 1542 1542 1541 1541 1541 1540 1540
1528 1534 1539 1533 1531 1532 1537 1544 1537 1536 1536 1537 1538 1539 1540 1540 1541 1541 1541 1542 1542 1542 1542 1543 1543 1544 1544 1544 1544 1544 1544 1544 1544 1544 1543 1543 1543 1543 1543 1543 1543 1543 1543 1543 1542 1542 1542 1541 1541
1536 1542 1541 1536 1532 1533 1537 1542 1537 1536 1537 1537 1538 1539 1539 1540 1540 1541 1541 1541 1541 1542 1542 1543 1543 1543 1544 1544 1544 1544 1544 1544 1544 1544 1544 1543 1543 1543 1543 1543 1543 1543 1543 1543 1543 1543 1543 1542 1542
1542 1542 1541 1540 1535 1536 1540 1541 1537 1537 1537 1537 1538 1538 1539 1539 1540 1540 1541 1541 1541 1541 1541 1542 1543 1543 1544 1544 1544 1544 1544 1544 1544 1544 1544 1544 1543 1543 1543 1543 1543 1543 1543 1543 1543 1543 1543 1543 1543
1534 1538 1541 1538 1533 1537 1541 1540 1537 1536 1537 1537 1537 1537 1538 1538 1540 1540 1540 1540 1540 1540 1541 1541 1542 1543 1543 1543 1544 1544 1544 1544 1544 1544 1543 1543 1543 1543 1543 1543 1543 1543 1543 1543 1543 1543 1543 1543 1543
1533 1539 1540 1537 1533 1537 1541 1540 1536 1535 1535 1534 1535 1535 1536 1537 1538 1539 1539 1539 1540 1540 1540 1541 1542 1542 1543 1543 1543 1543 1543 1543 1543 1543 1543 1543 1543 1542 1542 1542 1542 1542 1543 1542 1542 1543 1543 1543 1543
1534 1538 1538 1538 1535 1536 1540 1543 1538 1534 1533 1533 1533 1534 1534 1535 1536 1537 1538 1538 1539 1540 1540 1540 1541 1541 1542 1542 1543 1543 1543 1543 1542 1542 1542 1542 1542 1542 1542 1542 1542 1542 1542 1542 1542 1542 1542 1542 1542
1536 1530 1531 1534 1542 1548 1544 1556 1542 1536 1534 1532 1531 1532 1532 1533 1534 1535 1536 1537 1538 1539 1540 1540 1540 1541 1541 1541 1542 1542 1541 1541 1541 1541 1541 1541 1541 1541 1541 1541 1540 1541 1541 1541 1541 1541 1541 1541 1541
1529 1527 1530 1534 1541 1549 1548 1554 1548 1537 1535 1531 1529 1529 1529 1531 1532 1533 1534 1536 1537 1538 1539 1539 1539 1540 1540 1540 1540 1541 1540 1540 1540 1540 1540 1540 1540 1540 1540 1539 1539 1539 1539 1539 1540 1540 1540 1540 1540
1526 1531 1536 1542 1548 1557 1551 1554 1551 1540 1533 1529 1527 1527 1527 1528 1530 1532 1533 1535 1536 1537 1537 1538 1538 1539 1539 1539 1539 1539 1539 1539 1539 1539 1539 1539 1539 1538 1538 1538 1538 1538 1538 1538 1538 1538 1539 1539 1539
1529 1541 1556 1558 1564 1561 1549 1552 1547 1531 1528 1526 1525 1525 1525 1526 1528 1530 1531 1532 1533 1534 1535 1536 1537 1537 1537 1537 1537 1537 1537 1537 1537 1537 1537 1537 1537 1537 1537 1537 1536 1536 1536 1536 1537 1537 1537 1537 1537
1531 1538 1557 1564 1566 1561 1550 1552 1539 1527 1525 1524 1524 1524 1524 1525 1526 1528 1529 1530 1531 1533 1533 1534 1535 1535 1536 1536 1536 1536 1536 1536 1536 1536 1536 1536 1536 1535 1535 1535 1535 1535 1534 1534 1535 1535 1535 1536 1536
1532 1539 1540 1553 1557 1561 1555 1546 1534 1525 1524 1523 1523 1523 1523 1524 1526 1527 1528 1529 1530 1530 1531 1532 1533 1533 1534 1534 1534 1533 1533 1533 1533 1534 1534 1534 1534 1534 1534 1533 1533 1533 1533 1533 1533 1533 1533 1534 1534
1526 1534 1546 1553 1562 1565 1556 1550 1543 1529 1525 1523 1522 1522 1523 1524 1525 1526 1527 1527 1528 1528 1529 1530 1531 1531 1532 1532 1532 1532 1532 1531 1531 1531 1531 1531 1532 1531 1531 1531 1531 1531 1531 1531 1531 1531 1531 1531 1532
1531 1536 1542 1551 1553 1563 1563 1552 1528 1525 1522 1522 1521 1520 1521 1522 1523 1524 1525 1526 1526 1527 1527 1528 1528 1529 1530 1530 1530 1530 1529 1529 1529 1529 1529 1529 1529 1529 1529 1529 1529 1528 1528 1529 1529 1529 1529 1529 1530
1525 1530 1539 1548 1552 1556 1559 1550 1520 1520 1519 1519 1519 1519 1520 1521 1522 1523 1524 1524 1524 1525 1525 1526 1526 1526 1527 1527 1527 1527 1527 1527 1526 1526 1526 1526 1526 1526 1526 1526 1526 1526 1526 1526 1527 1527 1527 1527 1527